Time,TemperatureF,DewpointF,PressureIn,WindDirection,WindDirectionDegrees,WindSpeedMPH,WindSpeedGustMPH,Humidity,HourlyPrecipIn,Conditions,Clouds,dailyrainin,SoftwareType,DateUTC
2013-06-14 00:05:00,79.4,74.1,29.85,WSW,243,0.0,15.0,84,0.00,,,0.00,Wunderground v.1.15,2013-06-14 04:05:00,
2013-06-14 00:10:00,79.4,74.1,29.85,WSW,243,0.0,0.0,84,0.00,,,0.00,Wunderground v.1.15,2013-06-14 04:10:00,
2013-06-14 00:15:00,79.2,73.9,29.85,WSW,243,0.0,0.0,84,0.00,,,0.00,Wunderground v.1.15,2013-06-14 04:15:00,
2013-06-14 00:20:00,79.2,73.9,29.85,WSW,243,0.0,0.0,84,0.00,,,0.00,Wunderground v.1.15,2013-06-14 04:20:00,
2013-06-14 00:25:00,79.2,74.3,29.85,WSW,244,0.0,0.0,85,0.00,,,0.00,Wunderground v.1.15,2013-06-14 04:25:00,
2013-06-14 00:30:00,79.0,74.1,29.85,WSW,244,0.0,0.0,85,0.00,,,0.00,Wunderground v.1.15,2013-06-14 04:30:00,
2013-06-14 00:40:00,79.0,74.1,29.85,WSW,244,0.0,0.0,85,0.00,,,0.00,Wunderground v.1.15,2013-06-14 04:40:00,
2013-06-14 00:50:00,78.8,73.9,29.85,West,274,0.0,4.0,85,0.00,,,0.00,Wunderground v.1.15,2013-06-14 04:50:00,
2013-06-14 01:00:00,78.6,73.7,29.85,West,274,0.0,0.0,85,0.00,,,0.00,Wunderground v.1.15,2013-06-14 05:00:00,
2013-06-14 01:10:00,78.6,73.7,29.85,West,271,0.0,4.0,85,0.00,,,0.00,Wunderground v.1.15,2013-06-14 05:10:00,
2013-06-14 01:20:00,78.6,73.7,29.86,West,260,1.0,1.0,85,0.00,,,0.00,Wunderground v.1.15,2013-06-14 05:20:00,
2013-06-14 01:25:00,78.6,73.7,29.86,West,260,0.0,4.0,85,0.00,,,0.00,Wunderground v.1.15,2013-06-14 05:25:00,
2013-06-14 01:35:00,78.6,73.4,29.85,West,259,0.0,4.0,84,0.00,,,0.00,Wunderground v.1.15,2013-06-14 05:35:00,
2013-06-14 01:45:00,78.8,73.6,29.85,WSW,250,0.0,4.0,84,0.00,,,0.00,Wunderground v.1.15,2013-06-14 05:45:00,
2013-06-14 01:55:00,78.8,73.6,29.85,SW,234,1.0,4.0,84,0.00,,,0.00,Wunderground v.1.15,2013-06-14 05:55:00,
2013-06-14 02:05:00,78.8,73.2,29.85,SW,229,1.0,4.0,83,0.00,,,0.00,Wunderground v.1.15,2013-06-14 06:05:00,
2013-06-14 02:15:00,78.8,73.2,29.84,WSW,238,1.0,4.0,83,0.00,,,0.00,Wunderground v.1.15,2013-06-14 06:15:00,
2013-06-14 02:25:00,78.8,73.2,29.84,SW,236,0.0,4.0,83,0.00,,,0.00,Wunderground v.1.15,2013-06-14 06:25:00,
2013-06-14 02:35:00,78.8,73.6,29.83,SW,229,1.0,4.0,84,0.00,,,0.00,Wunderground v.1.15,2013-06-14 06:35:00,
2013-06-14 02:45:00,78.8,73.6,29.83,SW,229,0.0,4.0,84,0.00,,,0.00,Wunderground v.1.15,2013-06-14 06:45:00,
2013-06-14 02:55:00,78.8,73.6,29.83,SW,229,0.0,4.0,84,0.00,,,0.00,Wunderground v.1.15,2013-06-14 06:55:00,
2013-06-14 03:05:00,78.6,73.4,29.82,SW,229,0.0,4.0,84,0.00,,,0.00,Wunderground v.1.15,2013-06-14 07:05:00,
2013-06-14 03:10:00,78.6,73.4,29.82,SW,229,0.0,0.0,84,0.00,,,0.00,Wunderground v.1.15,2013-06-14 07:10:00,
2013-06-14 03:15:00,78.6,73.4,29.81,SW,228,0.0,0.0,84,0.00,,,0.00,Wunderground v.1.15,2013-06-14 07:15:00,
2013-06-14 03:25:00,78.5,73.3,29.81,SSW,195,0.0,0.0,84,0.00,,,0.00,Wunderground v.1.15,2013-06-14 07:25:00,
2013-06-14 03:35:00,78.5,73.3,29.81,SSW,200,0.0,0.0,84,0.00,,,0.00,Wunderground v.1.15,2013-06-14 07:35:00,
2013-06-14 03:45:00,78.3,73.1,29.80,WSW,241,1.0,1.0,84,0.00,,,0.00,Wunderground v.1.15,2013-06-14 07:45:00,
2013-06-14 03:55:00,78.3,73.1,29.80,WSW,237,0.0,1.0,84,0.00,,,0.00,Wunderground v.1.15,2013-06-14 07:55:00,
2013-06-14 04:05:00,78.1,72.9,29.80,WSW,255,1.0,2.0,84,0.00,,,0.00,Wunderground v.1.15,2013-06-14 08:05:00,
2013-06-14 04:15:00,78.3,73.4,29.81,WSW,245,0.0,2.0,85,0.00,,,0.00,Wunderground v.1.15,2013-06-14 08:15:00,
2013-06-14 04:25:00,78.3,73.1,29.81,WSW,248,0.0,2.0,84,0.00,,,0.00,Wunderground v.1.15,2013-06-14 08:25:00,
2013-06-14 04:35:00,78.5,73.3,29.82,WSW,252,1.0,2.0,84,0.00,,,0.00,Wunderground v.1.15,2013-06-14 08:35:00,
2013-06-14 04:45:00,78.5,72.9,29.80,WSW,248,1.0,6.0,83,0.00,,,0.00,Wunderground v.1.15,2013-06-14 08:45:00,
2013-06-14 04:55:00,78.6,73.0,29.80,WSW,252,1.0,2.0,83,0.00,,,0.00,Wunderground v.1.15,2013-06-14 08:55:00,
2013-06-14 05:05:00,78.6,73.0,29.81,West,266,2.0,2.0,83,0.00,,,0.00,Wunderground v.1.15,2013-06-14 09:05:00,
2013-06-14 05:15:00,78.8,73.6,29.82,West,261,6.0,7.0,84,0.00,,,0.00,Wunderground v.1.15,2013-06-14 09:15:00,
2013-06-14 05:25:00,79.0,73.4,29.82,WSW,238,8.0,10.0,83,0.00,,,0.00,Wunderground v.1.15,2013-06-14 09:25:00,
2013-06-14 05:35:00,79.0,73.0,29.81,SW,226,8.0,9.0,82,0.00,,,0.00,Wunderground v.1.15,2013-06-14 09:35:00,
2013-06-14 05:45:00,79.0,72.7,29.80,West,260,5.0,11.0,81,0.00,,,0.00,Wunderground v.1.15,2013-06-14 09:45:00,
2013-06-14 05:55:00,79.0,72.7,29.80,WSW,254,2.0,3.0,81,0.00,,,0.00,Wunderground v.1.15,2013-06-14 09:55:00,
2013-06-14 06:05:00,79.0,73.0,29.80,West,261,3.0,3.0,82,0.00,,,0.00,Wunderground v.1.15,2013-06-14 10:05:00,
2013-06-14 06:15:00,78.8,72.8,29.80,WSW,250,7.0,7.0,82,0.00,,,0.00,Wunderground v.1.15,2013-06-14 10:15:00,
2013-06-14 06:20:00,78.8,72.8,29.80,West,269,4.0,10.0,82,0.00,,,0.00,Wunderground v.1.15,2013-06-14 10:20:00,
2013-06-14 06:30:00,78.6,72.6,29.81,WSW,248,3.0,4.0,82,0.00,,,0.00,Wunderground v.1.15,2013-06-14 10:30:00,
2013-06-14 06:40:00,78.5,72.5,29.81,SW,216,3.0,3.0,82,0.00,,,0.00,Wunderground v.1.15,2013-06-14 10:40:00,
2013-06-14 06:50:00,78.6,72.6,29.81,West,269,2.0,9.0,82,0.00,,,0.00,Wunderground v.1.15,2013-06-14 10:50:00,
2013-06-14 07:00:00,78.6,72.3,29.81,West,269,6.0,6.0,81,0.00,,,0.00,Wunderground v.1.15,2013-06-14 11:00:00,
2013-06-14 07:10:00,78.8,72.5,29.81,WSW,255,3.0,14.0,81,0.00,,,0.00,Wunderground v.1.15,2013-06-14 11:10:00,
2013-06-14 07:20:00,79.2,72.9,29.82,WSW,243,5.0,5.0,81,0.00,,,0.00,Wunderground v.1.15,2013-06-14 11:20:00,
2013-06-14 07:30:00,79.6,73.3,29.82,West,265,7.0,14.0,81,0.00,,,0.00,Wunderground v.1.15,2013-06-14 11:30:00,
2013-06-14 07:40:00,79.6,72.9,29.82,West,264,9.0,14.0,80,0.00,,,0.00,Wunderground v.1.15,2013-06-14 11:40:00,
2013-06-14 07:50:00,79.8,72.7,29.82,West,269,11.0,17.0,79,0.00,,,0.00,Wunderground v.1.15,2013-06-14 11:50:00,
2013-06-14 08:00:00,79.9,72.8,29.82,West,261,3.0,14.0,79,0.00,,,0.00,Wunderground v.1.15,2013-06-14 12:00:00,
2013-06-14 08:10:00,79.8,72.3,29.82,SW,228,3.0,14.0,78,0.00,,,0.00,Wunderground v.1.15,2013-06-14 12:10:00,
2013-06-14 08:20:00,80.3,73.2,29.82,West,271,2.0,14.0,79,0.00,,,0.00,Wunderground v.1.15,2013-06-14 12:20:00,
2013-06-14 08:25:00,80.5,73.0,29.82,West,271,5.0,14.0,78,0.00,,,0.00,Wunderground v.1.15,2013-06-14 12:25:00,
2013-06-14 08:35:00,80.9,72.6,29.82,WSW,248,6.0,18.0,76,0.00,,,0.00,Wunderground v.1.15,2013-06-14 12:35:00,
2013-06-14 08:45:00,81.1,72.4,29.83,WSW,251,15.0,19.0,75,0.00,,,0.00,Wunderground v.1.15,2013-06-14 12:45:00,
2013-06-14 08:55:00,81.4,72.7,29.83,West,263,10.0,23.0,75,0.00,,,0.00,Wunderground v.1.15,2013-06-14 12:55:00,
2013-06-14 09:05:00,81.4,72.7,29.82,SW,224,15.0,15.0,75,0.00,,,0.00,Wunderground v.1.15,2013-06-14 13:05:00,
2013-06-14 09:15:00,82.0,73.3,29.83,West,269,8.0,18.0,75,0.00,,,0.00,Wunderground v.1.15,2013-06-14 13:15:00,
2013-06-14 09:20:00,82.0,73.3,29.83,SW,236,12.0,12.0,75,0.00,,,0.00,Wunderground v.1.15,2013-06-14 13:20:00,
2013-06-14 09:25:00,82.4,73.3,29.83,West,266,10.0,12.0,74,0.00,,,0.00,Wunderground v.1.15,2013-06-14 13:25:00,
2013-06-14 09:35:00,82.4,73.3,29.83,West,270,15.0,22.0,74,0.00,,,0.00,Wunderground v.1.15,2013-06-14 13:35:00,
2013-06-14 09:45:00,82.4,73.3,29.83,WSW,252,18.0,18.0,74,0.00,,,0.00,Wunderground v.1.15,2013-06-14 13:45:00,
2013-06-14 09:55:00,81.8,72.7,29.83,WSW,257,17.0,21.0,74,0.00,,,0.00,Wunderground v.1.15,2013-06-14 13:55:00,
2013-06-14 10:00:00,82.6,73.5,29.83,West,281,14.0,25.0,74,0.00,,,0.00,Wunderground v.1.15,2013-06-14 14:00:00,
2013-06-14 10:10:00,82.4,72.9,29.83,West,263,18.0,25.0,73,0.00,,,0.00,Wunderground v.1.15,2013-06-14 14:10:00,
2013-06-14 10:20:00,82.8,73.3,29.83,West,271,18.0,18.0,73,0.00,,,0.00,Wunderground v.1.15,2013-06-14 14:20:00,
2013-06-14 10:30:00,82.4,72.9,29.83,West,262,18.0,25.0,73,0.00,,,0.00,Wunderground v.1.15,2013-06-14 14:30:00,
2013-06-14 10:40:00,83.0,73.9,29.83,WSW,256,15.0,15.0,74,0.00,,,0.00,Wunderground v.1.15,2013-06-14 14:40:00,
2013-06-14 10:50:00,82.8,72.0,29.83,West,260,18.0,25.0,70,0.00,,,0.00,Wunderground v.1.15,2013-06-14 14:50:00,
2013-06-14 11:00:00,83.4,73.0,29.84,West,271,17.0,25.0,71,0.00,,,0.00,Wunderground v.1.15,2013-06-14 15:00:00,
2013-06-14 11:10:00,83.2,73.2,29.84,West,269,15.0,15.0,72,0.00,,,0.00,Wunderground v.1.15,2013-06-14 15:10:00,
2013-06-14 11:20:00,83.4,73.8,29.84,West,278,18.0,25.0,73,0.00,,,0.00,Wunderground v.1.15,2013-06-14 15:20:00,
2013-06-14 11:30:00,83.2,73.6,29.85,West,272,20.0,25.0,73,0.00,,,0.00,Wunderground v.1.15,2013-06-14 15:30:00,
2013-06-14 11:40:00,83.4,73.0,29.85,WNW,289,21.0,21.0,71,0.00,,,0.00,Wunderground v.1.15,2013-06-14 15:40:00,
2013-06-14 11:50:00,83.8,73.0,29.86,West,280,20.0,25.0,70,0.00,,,0.00,Wunderground v.1.15,2013-06-14 15:50:00,
2013-06-14 12:00:00,84.0,73.2,29.85,WNW,283,18.0,25.0,70,0.00,,,0.00,Wunderground v.1.15,2013-06-14 16:00:00,
2013-06-14 12:10:00,84.0,73.2,29.85,WSW,257,18.0,18.0,70,0.00,,,0.00,Wunderground v.1.15,2013-06-14 16:10:00,
2013-06-14 12:20:00,84.0,73.2,29.85,West,274,16.0,16.0,70,0.00,,,0.00,Wunderground v.1.15,2013-06-14 16:20:00,
2013-06-14 12:30:00,84.1,73.3,29.85,West,277,18.0,22.0,70,0.00,,,0.00,Wunderground v.1.15,2013-06-14 16:30:00,
2013-06-14 12:35:00,84.3,73.4,29.85,West,272,19.0,22.0,70,0.00,,,0.00,Wunderground v.1.15,2013-06-14 16:35:00,
2013-06-14 12:45:00,83.6,74.0,29.85,WNW,293,18.0,20.0,73,0.00,,,0.00,Wunderground v.1.15,2013-06-14 16:45:00,
2013-06-14 12:55:00,83.8,73.4,29.85,West,276,20.0,28.0,71,0.00,,,0.00,Wunderground v.1.15,2013-06-14 16:55:00,
2013-06-14 13:05:00,83.6,73.2,29.84,West,278,19.0,34.0,71,0.00,,,0.00,Wunderground v.1.15,2013-06-14 17:05:00,
2013-06-14 13:15:00,83.4,71.7,29.84,West,267,19.0,34.0,68,0.00,,,0.00,Wunderground v.1.15,2013-06-14 17:15:00,
2013-06-14 13:25:00,83.8,72.5,29.84,West,264,17.0,19.0,69,0.00,,,0.00,Wunderground v.1.15,2013-06-14 17:25:00,
2013-06-14 13:35:00,83.6,72.3,29.83,WNW,293,20.0,28.0,69,0.00,,,0.00,Wunderground v.1.15,2013-06-14 17:35:00,
2013-06-14 13:45:00,83.8,73.4,29.84,West,264,18.0,34.0,71,0.00,,,0.00,Wunderground v.1.15,2013-06-14 17:45:00,
2013-06-14 13:55:00,83.6,73.6,29.84,WNW,285,19.0,34.0,72,0.00,,,0.00,Wunderground v.1.15,2013-06-14 17:55:00,
2013-06-14 14:05:00,83.4,73.8,29.83,West,281,18.0,34.0,73,0.00,,,0.00,Wunderground v.1.15,2013-06-14 18:05:00,
2013-06-14 14:15:00,83.4,73.4,29.82,WNW,296,19.0,19.0,72,0.00,,,0.00,Wunderground v.1.15,2013-06-14 18:15:00,
2013-06-14 14:25:00,83.6,72.3,29.82,West,270,16.0,34.0,69,0.00,,,0.00,Wunderground v.1.15,2013-06-14 18:25:00,
2013-06-14 14:35:00,83.8,73.0,29.81,West,276,14.0,34.0,70,0.00,,,0.00,Wunderground v.1.15,2013-06-14 18:35:00,
2013-06-14 14:45:00,84.0,73.6,29.81,WNW,283,15.0,34.0,71,0.00,,,0.00,Wunderground v.1.15,2013-06-14 18:45:00,
2013-06-14 14:55:00,84.0,73.2,29.81,WNW,288,13.0,34.0,70,0.00,,,0.00,Wunderground v.1.15,2013-06-14 18:55:00,
2013-06-14 15:05:00,83.8,73.4,29.80,West,261,16.0,34.0,71,0.00,,,0.00,Wunderground v.1.15,2013-06-14 19:05:00,
2013-06-14 15:10:00,83.6,72.3,29.80,West,265,16.0,16.0,69,0.00,,,0.00,Wunderground v.1.15,2013-06-14 19:10:00,
2013-06-14 15:20:00,83.8,73.0,29.80,WNW,285,13.0,15.0,70,0.00,,,0.00,Wunderground v.1.15,2013-06-14 19:20:00,
2013-06-14 15:30:00,84.0,73.2,29.80,West,277,13.0,22.0,70,0.00,,,0.00,Wunderground v.1.15,2013-06-14 19:30:00,
2013-06-14 15:40:00,84.3,72.1,29.80,WNW,288,12.0,12.0,67,0.00,,,0.00,Wunderground v.1.15,2013-06-14 19:40:00,
2013-06-14 15:45:00,84.1,72.8,29.82,West,264,14.0,14.0,69,0.00,,,0.00,Wunderground v.1.15,2013-06-14 19:45:00,
2013-06-14 15:55:00,83.8,73.0,29.82,West,274,17.0,25.0,70,0.00,,,0.00,Wunderground v.1.15,2013-06-14 19:55:00,
2013-06-14 16:05:00,83.6,73.2,29.82,WNW,297,15.0,27.0,71,0.00,,,0.00,Wunderground v.1.15,2013-06-14 20:05:00,
2013-06-14 16:15:00,84.0,72.7,29.82,West,280,11.0,27.0,69,0.00,,,0.00,Wunderground v.1.15,2013-06-14 20:15:00,
2013-06-14 16:25:00,84.1,72.4,29.82,NW,309,10.0,18.0,68,0.00,,,0.00,Wunderground v.1.15,2013-06-14 20:25:00,
2013-06-14 16:35:00,84.9,72.7,29.80,WNW,282,10.0,27.0,67,0.00,,,0.00,Wunderground v.1.15,2013-06-14 20:35:00,
2013-06-14 16:45:00,84.7,73.0,29.80,West,262,12.0,12.0,68,0.00,,,0.00,Wunderground v.1.15,2013-06-14 20:45:00,
2013-06-14 16:55:00,84.9,73.2,29.80,West,275,10.0,27.0,68,0.00,,,0.00,Wunderground v.1.15,2013-06-14 20:55:00,
2013-06-14 17:05:00,85.1,72.9,29.79,WSW,249,8.0,21.0,67,0.00,,,0.00,Wunderground v.1.15,2013-06-14 21:05:00,
2013-06-14 17:10:00,85.1,72.9,29.79,WNW,283,11.0,27.0,67,0.00,,,0.00,Wunderground v.1.15,2013-06-14 21:10:00,
2013-06-14 17:20:00,85.1,73.3,29.78,West,264,14.0,27.0,68,0.00,,,0.00,Wunderground v.1.15,2013-06-14 21:20:00,
2013-06-14 17:30:00,85.1,72.5,29.78,West,264,15.0,27.0,66,0.00,,,0.00,Wunderground v.1.15,2013-06-14 21:30:00,
2013-06-14 17:40:00,84.3,72.6,29.78,WSW,246,16.0,16.0,68,0.00,,,0.00,Wunderground v.1.15,2013-06-14 21:40:00,
2013-06-14 17:50:00,83.8,72.1,29.78,West,264,14.0,27.0,68,0.00,,,0.00,Wunderground v.1.15,2013-06-14 21:50:00,
2013-06-14 18:00:00,83.6,73.2,29.78,West,274,12.0,12.0,71,0.00,,,0.00,Wunderground v.1.15,2013-06-14 22:00:00,
2013-06-14 18:10:00,83.0,72.6,29.78,West,268,15.0,16.0,71,0.00,,,0.00,Wunderground v.1.15,2013-06-14 22:10:00,
2013-06-14 18:20:00,82.6,73.1,29.79,West,267,16.0,21.0,73,0.00,,,0.00,Wunderground v.1.15,2013-06-14 22:20:00,
2013-06-14 18:30:00,82.4,72.5,29.80,WNW,285,15.0,15.0,72,0.00,,,0.00,Wunderground v.1.15,2013-06-14 22:30:00,
2013-06-14 18:40:00,82.2,72.7,29.80,West,262,14.0,14.0,73,0.00,,,0.00,Wunderground v.1.15,2013-06-14 22:40:00,
2013-06-14 18:50:00,82.2,73.1,29.80,WSW,258,11.0,12.0,74,0.00,,,0.00,Wunderground v.1.15,2013-06-14 22:50:00,
2013-06-14 19:00:00,82.4,72.0,29.81,WNW,284,11.0,11.0,71,0.00,,,0.00,Wunderground v.1.15,2013-06-14 23:00:00,
2013-06-14 19:10:00,82.8,72.8,29.81,West,259,7.0,22.0,72,0.00,,,0.00,Wunderground v.1.15,2013-06-14 23:10:00,
2013-06-14 19:20:00,82.8,72.4,29.81,WSW,254,8.0,8.0,71,0.00,,,0.00,Wunderground v.1.15,2013-06-14 23:20:00,
2013-06-14 19:30:00,82.8,72.0,29.81,West,263,5.0,5.0,70,0.00,,,0.00,Wunderground v.1.15,2013-06-14 23:30:00,
2013-06-14 19:40:00,82.2,71.9,29.81,WSW,251,0.0,22.0,71,0.00,,,0.00,Wunderground v.1.15,2013-06-14 23:40:00,
2013-06-14 19:50:00,82.2,72.3,29.80,West,271,2.0,22.0,72,0.00,,,0.00,Wunderground v.1.15,2013-06-14 23:50:00,
2013-06-14 20:00:00,81.8,72.3,29.80,West,274,1.0,1.0,73,0.00,,,0.00,Wunderground v.1.15,2013-06-15 00:00:00,
2013-06-14 20:10:00,81.4,72.7,29.80,West,276,4.0,4.0,75,0.00,,,0.00,Wunderground v.1.15,2013-06-15 00:10:00,
2013-06-14 20:20:00,81.1,72.8,29.81,WSW,243,4.0,22.0,76,0.00,,,0.00,Wunderground v.1.15,2013-06-15 00:20:00,
2013-06-14 20:30:00,80.7,72.8,29.82,West,264,5.0,5.0,77,0.00,,,0.00,Wunderground v.1.15,2013-06-15 00:30:00,
2013-06-14 20:40:00,80.7,73.2,29.82,West,266,1.0,1.0,78,0.00,,,0.00,Wunderground v.1.15,2013-06-15 00:40:00,
2013-06-14 20:50:00,80.5,73.4,29.82,WSW,255,1.0,1.0,79,0.00,,,0.00,Wunderground v.1.15,2013-06-15 00:50:00,
2013-06-14 21:00:00,80.3,73.2,29.82,West,264,3.0,3.0,79,0.00,,,0.00,Wunderground v.1.15,2013-06-15 01:00:00,
2013-06-14 21:10:00,80.3,73.6,29.82,WSW,239,1.0,1.0,80,0.00,,,0.00,Wunderground v.1.15,2013-06-15 01:10:00,
2013-06-14 21:20:00,80.3,73.6,29.82,WSW,251,1.0,5.0,80,0.00,,,0.00,Wunderground v.1.15,2013-06-15 01:20:00,
2013-06-14 21:30:00,80.3,73.6,29.82,West,261,0.0,4.0,80,0.00,,,0.00,Wunderground v.1.15,2013-06-15 01:30:00,
2013-06-14 21:35:00,80.1,73.7,29.82,WSW,240,0.0,4.0,81,0.00,,,0.00,Wunderground v.1.15,2013-06-15 01:35:00,
2013-06-14 21:45:00,80.1,73.7,29.82,WSW,241,0.0,6.0,81,0.00,,,0.00,Wunderground v.1.15,2013-06-15 01:45:00,
2013-06-14 21:55:00,80.1,73.7,29.82,SW,223,1.0,1.0,81,0.00,,,0.00,Wunderground v.1.15,2013-06-15 01:55:00,
2013-06-14 22:05:00,79.9,73.9,29.83,SW,223,0.0,13.0,82,0.00,,,0.00,Wunderground v.1.15,2013-06-15 02:05:00,
2013-06-14 22:10:00,79.9,74.3,29.83,SW,223,0.0,13.0,83,0.00,,,0.00,Wunderground v.1.15,2013-06-15 02:10:00,
2013-06-14 22:15:00,79.9,73.9,29.84,SW,223,0.0,13.0,82,0.00,,,0.00,Wunderground v.1.15,2013-06-15 02:15:00,
2013-06-14 22:25:00,80.1,74.1,29.84,SW,224,0.0,13.0,82,0.00,,,0.00,Wunderground v.1.15,2013-06-15 02:25:00,
2013-06-14 22:35:00,80.1,74.1,29.85,SW,224,0.0,13.0,82,0.00,,,0.00,Wunderground v.1.15,2013-06-15 02:35:00,
2013-06-14 22:45:00,80.1,74.5,29.85,SW,224,0.0,13.0,83,0.00,,,0.00,Wunderground v.1.15,2013-06-15 02:45:00,
2013-06-14 22:50:00,80.1,74.5,29.85,SW,221,0.0,13.0,83,0.00,,,0.00,Wunderground v.1.15,2013-06-15 02:50:00,
2013-06-14 23:00:00,80.1,74.5,29.84,SW,219,0.0,13.0,83,0.00,,,0.00,Wunderground v.1.15,2013-06-15 03:00:00,
2013-06-14 23:10:00,80.1,74.5,29.84,SW,218,1.0,1.0,83,0.00,,,0.00,Wunderground v.1.15,2013-06-15 03:10:00,
2013-06-14 23:20:00,79.9,74.3,29.84,SW,233,1.0,13.0,83,0.00,,,0.00,Wunderground v.1.15,2013-06-15 03:20:00,
2013-06-14 23:30:00,79.8,73.8,29.84,SW,233,0.0,13.0,82,0.00,,,0.00,Wunderground v.1.15,2013-06-15 03:30:00,
2013-06-14 23:40:00,79.9,73.5,29.84,SSW,203,1.0,1.0,81,0.00,,,0.00,Wunderground v.1.15,2013-06-15 03:40:00,
2013-06-14 23:50:00,80.1,73.7,29.84,SW,233,0.0,13.0,81,0.00,,,0.00,Wunderground v.1.15,2013-06-15 03:50:00,